This is the latest recevied weather packets stored in our database for station/object DL9CN-10. If no packets are shown the sender has not sent any weather packets the latest 10 day(s).
| Time | Temp. | Humidity | Pressure | Rain* | Wind** | Luminosity | Snow |
|---|---|---|---|---|---|---|---|
| 1777720967 | 22.22° C | 41% | 1021.3 hPa | - | - | - | - |
| 1777720067 | 21.67° C | 41% | 1021.4 hPa | - | - | - | - |
| 1777718266 | 20.56° C | 41% | 1021.9 hPa | - | - | - | - |
| 1777717371 | 20.56° C | 41% | 1022.1 hPa | - | - | - | - |
| 1777716470 | 20° C | 41% | 1022.3 hPa | - | - | - | - |
| 1777715570 | 19.44° C | 41% | 1022.5 hPa | - | - | - | - |
| 1777714669 | 18.89° C | 41% | 1022.6 hPa | - | - | - | - |
| 1777713769 | 18.89° C | 41% | 1023 hPa | - | - | - | - |
| 1777712869 | 18.33° C | 41% | 1023 hPa | - | - | - | - |
| 1777711969 | 17.78° C | 40% | 1023.2 hPa | - | - | - | - |
| 1777711069 | 17.78° C | 40% | 1023.3 hPa | - | - | - | - |
| 1777710169 | 17.22° C | 40% | 1023.4 hPa | - | - | - | - |
| 1777709269 | 16.67° C | 40% | 1023.5 hPa | - | - | - | - |
| 1777708368 | 16.67° C | 41% | 1023.6 hPa | - | - | - | - |
| 1777707468 | 16.11° C | 41% | 1023.6 hPa | - | - | - | - |
| 1777706568 | 16.11° C | 41% | 1023.6 hPa | - | - | - | - |
| 1777705668 | 15.56° C | 40% | 1023.7 hPa | - | - | - | - |
| 1777704768 | 15.56° C | 40% | 1023.8 hPa | - | - | - | - |
| 1777703868 | 15° C | 40% | 1023.9 hPa | - | - | - | - |
| 1777702968 | 15° C | 40% | 1023.9 hPa | - | - | - | - |
| 1777702068 | 15° C | 40% | 1023.8 hPa | - | - | - | - |
| 1777701167 | 14.44° C | 40% | 1023.7 hPa | - | - | - | - |
| 1777700267 | 14.44° C | 39% | 1023.6 hPa | - | - | - | - |
| 1777699367 | 14.44° C | 38% | 1023.6 hPa | - | - | - | - |
| 1777698467 | 14.44° C | 38% | 1023.4 hPa | - | - | - | - |
* Rain since midnight (hover to see other rain measurements)
** Current wind speed in m/s (hover to see current wind gust speed)